User: anonymous   Login
Location: Unspecified
(0.0000°N, 0.0000°E)
Time: 15:05:04
(UTC+00:00)
Language:

ECAMSAT - Orbit

View from above orbital plane
View from above orbital plane
View from above satellite
View from above satellite

Ground track
Ground track

The orbit data is extracted from the following two-line orbital elements,

1 43019U 98067NG  19078.55559087 +.00005505 +00000-0 +72815-4 0  9998
2 43019 051.6399 074.2019 0005232 116.3265 243.8266 15.60070953161499
Epoch (UTC): 19 March 2019 13:20:03
Eccentricity: 0.0005232
inclination: 51.6399°
perigee height: 384 km
apogee height: 391 km
right ascension of ascending node: 74.2019°
argument of perigee: 116.3265°
revolutions per day: 15.60070953
mean anomaly at epoch: 243.8266°
orbit number at epoch: 16149

The dashed part of the orbit path shows where the satellite is in the earth's shadow,  

DLR